FW2664 Weather Reports


time (UTC)temp
C
wind
direction
speed
KPH
gust
KPH
rain 1hr
cm
rain 24hr
cm
rain mn
cm
humidity
%
barometer
mb
20260504050651 13 80 3.2 4.8 0.00 0.00 0.00 57 1014.4
20260504050148 13 71 3.2 3.2 0.00 0.00 0.00 56 1014.1
20260504045646 14 56 3.2 3.2 0.00 0.00 0.00 55 1014.0
20260504045146 15 67 3.2 3.2 0.00 0.00 0.00 53 1014.0
20260504044644 15 81 0.0 4.8 0.00 0.00 0.00 53 1014.2
20260504044140 15 82 4.8 4.8 0.00 0.00 0.00 53 1014.1
20260504043637 15 65 1.6 4.8 0.00 0.00 0.00 52 1014.1
20260504043135 15 91 4.8 14.5 0.00 0.00 0.00 52 1014.0
20260504042632 15 85 3.2 4.8 0.00 0.00 0.00 52 1013.9
20260504042129 15 140 1.6 6.4 0.00 0.00 0.00 54 1014.0
20260504041624 15 59 3.2 4.8 0.00 0.00 0.00 53 1013.9
20260504041121 15 44 0.0 8.0 0.00 0.00 0.00 52 1013.7
20260504040618 15 129 17.7 22.5 0.00 0.00 0.00 51 1013.7
20260504040115 15 158 3.2 8.0 0.00 0.00 0.00 52 1013.7
20260504035612 15 93 1.6 3.2 0.00 0.00 0.00 54 1014.0
20260504035108 15 26 0.0 8.0 0.00 0.00 0.00 55 1014.0
20260504034606 13 109 4.8 8.0 0.00 0.00 0.00 55 1013.8
20260504034102 13 39 1.6 4.8 0.00 0.00 0.00 58 1014.0
20260504033600 13 75 3.2 4.8 0.00 0.00 0.00 57 1014.2
20260504033057 12 77 3.2 3.2 0.00 0.00 0.00 58 1014.2
20260504032554 12 88 3.2 3.2 0.00 0.00 0.00 62 1014.3
20260504032051 12 88 1.6 3.2 0.00 0.00 0.00 63 1014.3
20260504031548 12 86 3.2 3.2 0.00 0.00 0.00 64 1014.3
20260504031044 12 70 3.2 3.2 0.00 0.00 0.00 64 1014.4
20260504030542 12 76 3.2 4.8 0.00 0.00 0.00 62 1014.4
20260504030038 12 75 3.2 4.8 0.00 0.00 0.00 63 1014.5
20260504025535 12 67 3.2 4.8 0.00 0.00 0.00 63 1014.6
20260504025032 12 75 3.2 3.2 0.00 0.00 0.00 60 1014.6
20260504024529 12 81 3.2 4.8 0.00 0.00 0.00 60 1014.5
20260504024026 12 76 3.2 4.8 0.00 0.00 0.00 60 1014.7
20260504023522 12 80 3.2 4.8 0.00 0.00 0.00 60 1014.8
20260504023018 13 77 3.2 3.2 0.00 0.00 0.00 58 1014.5
20260504022514 13 82 3.2 4.8 0.00 0.00 0.00 58 1014.5
20260504022011 13 76 4.8 4.8 0.00 0.00 0.00 56 1014.5
20260504021509 13 83 3.2 4.8 0.00 0.00 0.00 56 1014.6
20260504021005 13 76 3.2 4.8 0.00 0.00 0.00 56 1014.4
20260504020502 14 76 3.2 4.8 0.00 0.00 0.00 55 1014.6
20260504015959 14 76 3.2 4.8 0.00 0.00 0.00 53 1014.4
20260504015455 15 64 3.2 4.8 0.00 0.00 0.00 53 1014.4
20260504014951 15 76 3.2 4.8 0.00 0.00 0.00 52 1014.3
20260504014447 15 89 3.2 3.2 0.00 0.00 0.00 51 1014.2
20260504013944 15 78 3.2 3.2 0.00 0.00 0.00 51 1014.0
20260504013443 16 81 3.2 3.2 0.00 0.00 0.00 50 1014.0
20260504012938 16 80 1.6 3.2 0.00 0.00 0.00 50 1013.8
20260504012436 16 82 3.2 3.2 0.00 0.00 0.00 46 1013.8
20260504011934 16 95 1.6 3.2 0.00 0.00 0.00 46 1013.8
20260504011430 16 77 3.2 3.2 0.00 0.00 0.00 47 1013.7
20260504010926 16 95 1.6 3.2 0.00 0.00 0.00 47 1013.7
20260504010422 16 87 3.2 3.2 0.00 0.00 0.00 49 1014.0
20260504005918 16 86 1.6 3.2 0.00 0.00 0.00 48 1013.9
20260504005415 16 67 1.6 4.8 0.00 0.00 0.00 47 1013.8
20260504004913 17 103 1.6 3.2 0.00 0.00 0.00 47 1013.7
20260504004411 17 80 1.6 3.2 0.00 0.00 0.00 45 1013.8
20260504003907 17 93 0.0 3.2 0.00 0.00 0.00 47 1013.8
20260504003404 17 95 1.6 3.2 0.00 0.00 0.00 46 1013.8
20260504002900 17 131 0.0 3.2 0.00 0.00 0.00 43 1013.9
20260504002357 18 93 1.6 4.8 0.00 0.00 0.00 42 1013.9
20260504001855 18 66 1.6 3.2 0.00 0.00 0.00 40 1014.0
20260504001352 18 92 1.6 3.2 0.00 0.00 0.00 40 1014.0
20260504000848 18 181 0.0 3.2 0.00 0.00 0.00 39 1013.8
20260504000346 18 170 1.6 3.2 0.00 0.00 0.00 38 1014.1
20260503235843 19 76 3.2 3.2 0.00 0.00 0.00 39 1014.0
20260503235341 19 84 1.6 3.2 0.00 0.00 0.00 38 1014.3
20260503234838 19 243 0.0 3.2 0.00 0.00 0.00 37 1014.0
20260503234336 20 59 0.0 3.2 0.00 0.00 0.00 37 1014.1
20260503233833 20 255 0.0 3.2 0.00 0.00 0.00 34 1014.0
20260503233329 21 131 1.6 3.2 0.00 0.00 0.00 34 1014.3
20260503232826 21 115 1.6 3.2 0.00 0.00 0.00 32 1014.3
20260503232323 21 95 0.0 3.2 0.00 0.00 0.00 33 1014.5
20260503231821 21 253 3.2 6.4 0.00 0.00 0.00 31 1014.5
20260503231318 21 257 3.2 6.4 0.00 0.00 0.00 31 1014.6
20260503230813 21 86 1.6 4.8 0.00 0.00 0.00 31 1014.7
20260503230311 21 273 4.8 6.4 0.00 0.00 0.00 30 1014.6
20260503225808 21 204 3.2 6.4 0.00 0.00 0.00 31 1014.8
20260503225304 21 232 3.2 3.2 0.00 0.00 0.00 32 1014.9
20260503224800 22 101 3.2 4.8 0.00 0.00 0.00 31 1014.7
20260503224258 21 66 1.6 4.8 0.00 0.00 0.00 30 1014.9
20260503223755 21 113 3.2 6.4 0.00 0.00 0.00 31 1014.8
20260503223253 21 96 3.2 3.2 0.00 0.00 0.00 31 1014.8
20260503222749 21 145 1.6 9.7 0.00 0.00 0.00 31 1015.1
20260503222247 21 242 3.2 8.0 0.00 0.00 0.00 29 1015.0
20260503221745 21 74 3.2 4.8 0.00 0.00 0.00 29 1015.0
20260503221243 21 260 4.8 6.4 0.00 0.00 0.00 33 1015.0
20260503220739 21 201 3.2 4.8 0.00 0.00 0.00 30 1015.3
20260503220236 22 316 3.2 9.7 0.00 0.00 0.00 32 1015.3
20260503215733 22 112 3.2 4.8 0.00 0.00 0.00 30 1015.2
20260503215230 22 111 3.2 4.8 0.00 0.00 0.00 30 1015.5
20260503214728 22 261 3.2 4.8 0.00 0.00 0.00 29 1015.6
20260503214224 22 190 0.0 4.8 0.00 0.00 0.00 31 1015.7
20260503213723 22 81 3.2 4.8 0.00 0.00 0.00 30 1015.5
20260503213219 22 264 0.0 6.4 0.00 0.00 0.00 29 1015.8
20260503212716 22 6 0.0 6.4 0.00 0.00 0.00 29 1015.8
20260503212214 22 152 8.0 12.9 0.00 0.00 0.00 28 1015.8
20260503211712 21 338 1.6 6.4 0.00 0.00 0.00 32 1015.9
20260503211207 21 124 3.2 4.8 0.00 0.00 0.00 32 1016.1
20260503210703 21 275 1.6 6.4 0.00 0.00 0.00 31 1016.3
20260503210201 22 204 6.4 8.0 0.00 0.00 0.00 29 1016.3
20260503205655 22 300 8.0 12.9 0.00 0.00 0.00 29 1016.5
20260503205152 22 155 0.0 3.2 0.00 0.00 0.00 30 1016.6
20260503204648 22 197 3.2 3.2 0.00 0.00 0.00 30 1016.5
20260503204147 21 128 3.2 6.4 0.00 0.00 0.00 32 1016.7
20260503203643 22 344 0.0 9.7 0.00 0.00 0.00 30 1016.8
20260503203141 22 146 0.0 4.8 0.00 0.00 0.00 33 1016.8
20260503202638 21 205 1.6 3.2 0.00 0.00 0.00 32 1016.9
20260503202136 21 308 3.2 4.8 0.00 0.00 0.00 33 1017.0
20260503201634 21 212 3.2 3.2 0.00 0.00 0.00 31 1016.9
20260503201131 21 191 3.2 8.0 0.00 0.00 0.00 30 1017.1
20260503200627 21 128 9.7 17.7 0.00 0.00 0.00 29 1017.3
20260503200124 21 343 1.6 8.0 0.00 0.00 0.00 32 1017.4
20260503195621 21 210 0.0 8.0 0.00 0.00 0.00 33 1017.5
20260503195118 21 281 3.2 4.8 0.00 0.00 0.00 31 1017.8
20260503194616 20 8 4.8 4.8 0.00 0.00 0.00 32 1017.6
20260503194116 20 26 1.6 6.4 0.00 0.00 0.00 35 1018.0
20260503193613 20 142 4.8 6.4 0.00 0.00 0.00 30 1018.1
20260503193108 20 219 6.4 6.4 0.00 0.00 0.00 31 1018.1
20260503192604 20 64 3.2 11.3 0.00 0.00 0.00 30 1018.1
20260503192100 20 307 0.0 9.7 0.00 0.00 0.00 36 1018.2
20260503191557 20 145 0.0 4.8 0.00 0.00 0.00 33 1018.2
20260503191053 20 291 1.6 6.4 0.00 0.00 0.00 36 1018.3
20260503190551 19 104 9.7 9.7 0.00 0.00 0.00 33 1018.6
20260503190048 19 106 4.8 9.7 0.00 0.00 0.00 33 1018.5
20260503185544 19 110 9.7 16.1 0.00 0.00 0.00 33 1018.6
20260503185044 20 114 4.8 6.4 0.00 0.00 0.00 36 1018.6
20260503184540 19 36 0.0 6.4 0.00 0.00 0.00 31 1018.7
20260503184037 19 314 3.2 9.7 0.00 0.00 0.00 36 1018.9
20260503183534 19 122 4.8 14.5 0.00 0.00 0.00 33 1018.8
20260503183031 19 177 4.8 6.4 0.00 0.00 0.00 33 1019.0
20260503182529 18 220 3.2 3.2 0.00 0.00 0.00 34 1018.9
20260503182027 18 305 3.2 6.4 0.00 0.00 0.00 33 1018.9
20260503181523 18 79 3.2 9.7 0.00 0.00 0.00 32 1019.1
20260503181020 18 342 3.2 8.0 0.00 0.00 0.00 35 1019.1
20260503180517 18 129 1.6 6.4 0.00 0.00 0.00 33 1019.1
20260503180014 18 171 3.2 12.9 0.00 0.00 0.00 35 1019.3
20260503175512 17 111 6.4 9.7 0.00 0.00 0.00 33 1019.3
20260503175008 17 109 12.9 14.5 0.00 0.00 0.00 33 1019.3
20260503174506 18 110 6.4 14.5 0.00 0.00 0.00 31 1019.5
20260503174002 17 332 3.2 3.2 0.00 0.00 0.00 37 1019.5
20260503173457 17 68 3.2 8.0 0.00 0.00 0.00 33 1019.6
20260503172954 17 121 6.4 11.3 0.00 0.00 0.00 36 1019.7
20260503172452 17 66 3.2 6.4 0.00 0.00 0.00 33 1019.7
20260503171948 17 128 3.2 8.0 0.00 0.00 0.00 41 1019.8
20260503171445 17 125 3.2 11.3 0.00 0.00 0.00 36 1020.0
20260503170942 17 106 4.8 8.0 0.00 0.00 0.00 35 1020.0
20260503170438 17 75 3.2 8.0 0.00 0.00 0.00 38 1020.2
20260503150831 15 272 3.2 3.2 0.00 0.00 0.00 37 1020.9
20260503150327 15 291 3.2 4.8 0.00 0.00 0.00 42 1021.0
20260503140251 13 129 6.4 9.7 0.00 0.00 0.00 60 1021.1
20260503131221 12 77 3.2 4.8 0.00 0.00 0.00 70 1020.8
20260503130718 12 82 6.4 9.7 0.00 0.00 0.00 71 1021.0
20260503130215 12 89 3.2 6.4 0.00 0.00 0.00 70 1021.0
20260503120141 8 68 3.2 4.8 0.00 0.00 0.00 92 1020.7
20260503110609 3 66 4.8 4.8 0.00 0.00 0.00 97 1019.7
20260503110106 3 66 4.8 4.8 0.00 0.00 0.00 97 1019.8
20260503090455 4 67 3.2 4.8 0.00 0.00 0.00 97 1019.4
20260503081422 5 67 3.2 4.8 0.00 0.00 0.00 97 1019.3
20260503080919 5 89 3.2 3.2 0.00 0.00 0.00 97 1019.2
20260503080415 5 89 3.2 3.2 0.00 0.00 0.00 97 1019.3
20260503072852 5 83 4.8 4.8 0.00 0.00 0.00 97 1019.1
20260503072349 5 80 3.2 3.2 0.00 0.00 0.00 96 1019.0
20260503071845 5 82 3.2 3.2 0.00 0.00 0.00 96 1019.3
20260503071342 5 88 3.2 3.2 0.00 0.00 0.00 96 1019.1
20260503070839 5 85 3.2 3.2 0.00 0.00 0.00 96 1019.2
20260503070337 5 80 4.8 4.8 0.00 0.00 0.00 96 1019.0
20260503060308 6 91 3.2 3.2 0.00 0.00 0.00 96 1019.2